Regional Weather Roundup
Issued by NWS

Home | Current Version | Previous Version | Text Only | Print | Product List | Glossary On
Versions: 1 2 3 4 5 6 7 8 9 10 11 12 13 14 15 16 17 18 19 20 21 22 23 24 25 26 27 28 29 30 31 32 33 34 35 36 37 38 39 40 41 42 43 44 45 46 47 48 49 50
000
ASUS45 KABQ 142010
RWRNM
NEW MEXICO REGIONAL WEATHER ROUNDUP
NATIONAL WEATHER SERVICE ALBUQUERQUE NM
100 PM MST SUN FEB 14 2016

NOTE: "FAIR" MEANS FEW OR NO CLOUDS BELOW 12,000 FEET AGL WITH NO
       SIGNIFICANT WEATHER OR OBSTRUCTIONS TO VISION.

      THIS PRODUCT IS RELEASED AS TWO VERSIONS.  ONE VERSION NEAR
      THE TOP OF THE HOUR CONTAINING PRELIMINARY DATA FROM ALBUQUERQUE
      AND OTHER STATIONS.  A FINAL VERSION WITH ADDITIONAL DATA IS
      ISSUED ABOUT 10 MINUTES AFTER THE HOUR.

NMZ501-503-504-510>518-142100-
NORTHWEST PLATEAU/NORTHCENTRAL MOUNTAINS

CITY           SKY/WX    TMP DP  RH WIND       PRES   REMARKS
FARMINGTON     FAIR      48  24  39 W10       30.09F
LOS ALAMOS     FAIR      49  18  28 S3        30.05F
SANTA FE       FAIR      57  13  17 W12G18    30.01F
TAOS           FAIR      48  18  29 SW13      30.02F
ANGEL FIRE     FAIR      42  12  30 W10G26    30.02F

$$
NMZ402-403-502-505>509-142100-
WESTCENTRAL MOUNTAINS/SOUTHWEST MOUNTAINS

CITY           SKY/WX    TMP DP  RH WIND       PRES   REMARKS
GALLUP         FAIR      54  19  25 SW9       30.12F
GRANTS         FAIR      58   7  13 N18G25    30.11F
SILVER CITY      N/A     68   7   9 W7        30.08F

$$
NMZ407-409-411-412-142100-
SOUTHERN DESERTS

CITY           SKY/WX    TMP DP  RH WIND       PRES   REMARKS
LORDSBURG      FAIR      70  18  13 NW9G20    30.04F
DEMING         FAIR      71  11  10 SW9       30.02F
LAS CRUCES     FAIR      71   7   8 CALM      30.03F
HOLLOMAN AFB   FAIR      69  10  10 W8        29.98F
ALAMOGORDO     FAIR      70   9   9 NW6       29.99F
T OR C         FAIR      67  11  11 E10       30.01F

$$
NMZ519>523-142100-
CENTRAL VALLEYS/CENTRAL HIGHLANDS

CITY           SKY/WX    TMP DP  RH WIND       PRES   REMARKS
ALBUQUERQUE    PTSUNNY   59  15  18 VRB3      30.04F
DOUBLE EAGLE   PTSUNNY   57  14  18 W8        30.06F
MORIARTY ARPT  FAIR      61   4  10 W15       30.02F
CLINES CORNERS FAIR      57   8  14 W25G31    29.99F
BELEN          FAIR      61  10  13 N6        30.04F
SOCORRO        FAIR      65  11  12 N12       30.02F

$$
NMZ524>526-539-540-142100-
SOUTHCENTRAL MOUNTAINS

CITY           SKY/WX    TMP DP  RH WIND       PRES   REMARKS
RUIDOSO          N/A     57  16  19 SW7       30.08F

$$
NMZ527>531-142100-
NORTHEAST HIGHLANDS/NORTHEAST PLAINS

CITY           SKY/WX    TMP DP  RH WIND       PRES   REMARKS
LAS VEGAS      FAIR      54  19  25 S25G32    29.95F
RATON          FAIR      50  17  27 SW5       29.90F
CLAYTON        FAIR      51  16  24 S20       29.90F

$$
NMZ532>537-142100-
EASTCENTRAL PLAINS

CITY           SKY/WX    TMP DP  RH WIND       PRES   REMARKS
TUCUMCARI      FAIR      56  17  21 S9        29.93F
CANNON AFB     FAIR      54  18  24 S8        29.98F
CLOVIS AIRPORT FAIR      52  21  30 S8        30.00F

$$
NMZ028-029-538-142100-
SOUTHEAST PLAINS

CITY           SKY/WX    TMP DP  RH WIND       PRES   REMARKS
ROSWELL        FAIR      61  21  21 VRB3      30.00F
ARTESIA        FAIR      61  23  23 VRB5      30.01F
CARLSBAD       FAIR      63  24  22 N8        29.99F
HOBBS          SUNNY     63  18  17 NE10      30.00F


$$



USA.gov is the U.S. government's official web portal to all federal, state and local government web resources and services.